Wind_Speed
7 8 7 6 3 4 11 12 11 11 12 12 13 12 11 8 6 5 3 5 8 8 5 3 4 3 6 7 4 5 6 7 7
9 9 10 9 7 6 10 11 11 12 13 13 13 12 10 7 5 2 2 4 5 5 2 2 1 4 2 4 5 6 6 8 10
11 11 11 13 11 8 9 11 11 10 13 14 13 12 11 10 6 1 2 5 5 6 4 3 4 5 4 8 9 8 10 9 9
12 13 14 14 14 10 10 9 11 13 14 15 14 11 11 11 8 4 3 3 6 12 10 5 10 11 8 12 10 9 7 10 9
14 15 15 15 16 14 11 10 11 13 16 17 15 12 12 11 8 6 5 10 7 5 5 11 10 12 13 12 8 9 9 10 10
16 17 16 17 17 18 14 12 13 15 16 16 16 14 13 12 9 9 7 9 5 1 8 13 15 11 13 8 8 8 9 12 11
17 18 18 19 20 21 16 13 16 17 18 17 18 16 14 12 12 10 8 8 6 9 10 14 15 12 10 9 12 11 13 10 11
18 18 20 23 25 23 15 15 17 19 19 18 19 18 15 14 13 11 10 11 11 15 11 7 4 9 11 13 11 12 12 10 10
19 19 20 24 28 19 15 15 16 19 18 17 20 20 18 18 14 13 11 10 12 17 14 9 3 3 5 11 14 12 12 10 11
12 17 22 28 27 18 12 11 13 17 17 18 19 21 21 20 17 15 13 14 14 20 16 14 11 4 5 7 6 9 11 11 10
10 13 11 20 18 14 11 4 7 13 18 19 21 23 23 22 20 16 15 16 15 22 19 15 13 9 9 7 4 8 11 10 9
13 11 11 12 23 20 19 25 19 18 18 23 25 26 26 25 23 16 18 19 17 21 21 18 13 12 10 4 5 10 9 9 5
12 10 9 12 22 24 24 23 22 26 28 27 28 27 27 29 27 21 21 20 18 18 22 17 15 10 11 6 6 9 8 5 4
11 9 7 11 18 20 20 24 26 27 28 28 27 27 29 30 29 26 24 24 21 18 21 21 20 16 13 8 7 7 6 5 5
13 12 10 14 20 25 21 22 23 26 29 26 27 31 31 30 30 31 28 28 25 21 23 27 25 20 15 7 6 7 6 6 5
16 17 14 15 18 20 22 26 31 32 26 20 26 30 37 35 33 32 31 29 26 24 22 26 26 23 19 11 11 9 8 6 6
17 19 20 17 18 19 21 24 27 26 27 28 24 21 32 36 37 34 33 31 28 27 28 29 32 27 26 18 16 11 9 7 6
16 18 19 18 20 22 20 22 23 25 25 23 23 9 13 16 32 36 31 28 28 28 27 31 30 30 28 21 19 15 13 10 9
16 17 19 20 22 24 22 20 24 24 26 27 29 27 13 11 13 26 33 28 30 30 31 33 31 35 32 28 21 18 17 13 12
15 16 19 22 21 22 22 24 27 29 27 28 29 29 23 16 18 18 28 32 33 34 31 31 33 36 31 33 26 22 20 18 16
Wind_Direction
214 216 216 211 200 154 171 169 171 172 173 169 160 156 150 153 152 156 161 177 163 161 177 142 142 201 238 220 153 145 136 131 129
234 225 222 217 210 186 182 180 180 183 183 180 174 166 162 148 128 170 202 218 224 165 204 164 259 269 239 179 133 130 139 138 148
238 238 232 225 219 209 199 192 194 195 196 192 181 175 162 147 124 49 357 193 227 194 217 173 127 105 124 144 152 144 144 141 140
243 240 240 233 224 218 211 205 196 207 207 201 193 192 184 185 156 158 251 253 190 137 104 117 143 133 134 142 146 159 151 141 138
241 240 240 234 238 227 219 214 207 205 209 208 206 203 190 184 178 193 218 150 139 188 250 193 162 137 138 135 145 148 146 142 129
247 247 242 230 233 234 230 216 219 208 210 212 210 206 198 195 193 200 224 197 181 106 166 183 195 188 180 186 169 166 153 147 153
248 251 247 231 227 236 230 225 215 214 214 213 213 208 202 211 199 194 239 205 186 152 163 162 159 180 218 174 158 152 157 156 159
251 248 243 231 227 230 234 235 224 220 220 219 213 210 205 197 194 196 232 207 221 170 168 169 208 230 233 172 171 177 169 162 153
253 251 249 237 228 221 229 236 236 223 220 217 213 215 211 205 209 204 228 236 217 186 176 166 149 125 149 174 183 185 171 155 155
258 260 248 238 214 206 221 244 234 220 215 215 215 221 220 214 214 210 226 245 226 202 185 181 183 198 132 133 167 188 163 161 158
290 268 285 246 202 209 275 167 247 227 223 219 219 223 227 223 216 226 231 239 238 211 199 192 180 174 161 162 168 173 168 167 170
290 297 250 266 234 243 214 213 246 231 232 235 227 226 226 223 219 223 231 239 233 218 195 191 197 186 174 157 172 174 180 177 181
292 294 281 241 240 236 222 248 245 232 223 226 228 228 229 223 220 224 232 237 228 222 201 204 207 207 180 192 178 187 187 187 191
284 282 273 231 237 252 257 243 237 227 215 225 231 232 234 228 224 225 229 228 234 233 221 215 203 196 190 178 189 183 183 196 210
272 266 269 248 238 241 248 240 226 215 220 236 242 233 234 226 227 228 225 225 229 231 222 213 209 204 200 185 212 202 190 207 229
267 253 260 261 245 244 249 240 224 230 238 274 252 246 233 230 228 225 224 222 225 229 224 212 210 204 210 219 219 208 214 221 244
273 260 253 256 254 248 249 246 236 257 254 262 258 231 234 216 226 221 222 220 221 226 220 219 210 220 212 220 220 214 222 221 239
276 260 249 252 255 253 251 256 260 250 255 259 225 207 211 227 210 213 217 215 226 226 221 227 220 233 221 221 221 218 218 217 235
276 261 247 246 246 253 248 255 264 260 251 255 232 234 228 218 236 206 209 218 231 232 233 223 228 218 225 226 219 220 223 224 227
287 259 246 241 251 250 252 247 248 257 258 249 246 235 241 230 229 233 216 217 222 231 235 224 227 219 227 227 217 222 224 225 232
Height
1536 1536 1536 1537 1538 1537 1538 1539 1539 1540 1541 1542 1542 1543 1544 1546 1547 1548 1548 1548 1549 1549 1550 1550 1551 1551 1552 1552 1553 1554 1554 1554 1555
1536 1536 1536 1536 1537 1537 1538 1539 1539 1539 1541 1542 1543 1544 1545 1546 1547 1548 1548 1549 1549 1549 1550 1551 1551 1551 1552 1552 1554 1554 1554 1555 1555
1535 1536 1536 1536 1537 1537 1538 1539 1540 1540 1541 1542 1543 1544 1546 1546 1547 1548 1548 1548 1548 1549 1550 1551 1551 1552 1552 1553 1554 1555 1555 1554 1555
1533 1533 1535 1536 1536 1536 1537 1538 1539 1540 1541 1541 1543 1545 1546 1547 1547 1548 1548 1548 1547 1548 1550 1552 1552 1553 1553 1554 1555 1555 1555 1556 1556
1530 1531 1532 1533 1535 1535 1535 1537 1538 1539 1540 1541 1543 1544 1546 1547 1548 1548 1548 1548 1549 1550 1550 1552 1553 1553 1554 1555 1556 1556 1556 1556 1557
1527 1528 1530 1530 1532 1532 1534 1534 1536 1537 1538 1539 1542 1543 1545 1546 1548 1548 1549 1548 1549 1549 1549 1550 1551 1553 1556 1556 1556 1556 1557 1557 1557
1525 1525 1527 1528 1528 1530 1532 1533 1534 1536 1537 1538 1540 1542 1543 1545 1546 1548 1548 1548 1549 1549 1550 1550 1551 1552 1554 1556 1556 1557 1557 1558 1558
1520 1521 1522 1524 1525 1528 1530 1531 1532 1534 1535 1535 1539 1541 1542 1544 1545 1547 1548 1548 1548 1549 1550 1552 1552 1552 1553 1555 1556 1556 1557 1557 1557
1517 1518 1519 1520 1522 1524 1527 1530 1531 1532 1533 1535 1537 1539 1541 1542 1544 1546 1547 1547 1547 1547 1548 1550 1551 1552 1552 1553 1555 1555 1555 1556 1556
1514 1514 1514 1515 1515 1519 1522 1526 1529 1532 1533 1534 1536 1537 1539 1540 1542 1544 1545 1545 1546 1546 1546 1548 1549 1551 1551 1552 1552 1553 1554 1555 1556
1511 1512 1512 1511 1499 1511 1520 1524 1529 1532 1533 1533 1533 1534 1536 1539 1540 1541 1543 1544 1544 1544 1545 1547 1548 1550 1551 1552 1551 1552 1554 1555 1556
1508 1507 1509 1510 1507 1506 1511 1517 1520 1528 1526 1527 1529 1528 1531 1534 1537 1539 1540 1542 1543 1543 1542 1544 1546 1548 1550 1550 1551 1551 1553 1554 1555
1507 1506 1506 1508 1507 1510 1512 1514 1515 1515 1516 1522 1525 1526 1526 1529 1533 1535 1537 1539 1540 1541 1540 1543 1545 1547 1548 1549 1550 1551 1552 1553 1555
1505 1505 1506 1507 1507 1508 1510 1511 1510 1509 1513 1518 1521 1521 1524 1526 1529 1531 1533 1536 1537 1539 1540 1542 1544 1545 1547 1548 1549 1550 1551 1553 1554
1502 1502 1503 1504 1505 1506 1507 1507 1507 1507 1511 1514 1517 1516 1518 1519 1523 1526 1528 1531 1533 1534 1537 1538 1541 1543 1545 1545 1548 1549 1550 1551 1553
1499 1499 1500 1501 1500 1501 1501 1504 1504 1505 1505 1507 1508 1511 1512 1514 1517 1519 1523 1525 1528 1530 1532 1535 1537 1539 1542 1544 1546 1548 1549 1551 1551
1495 1494 1495 1496 1496 1497 1498 1498 1497 1500 1503 1505 1507 1505 1508 1504 1510 1514 1517 1519 1523 1525 1528 1530 1532 1536 1538 1541 1544 1545 1547 1549 1550
1491 1490 1490 1491 1492 1493 1494 1495 1495 1496 1499 1500 1502 1499 1499 1502 1500 1506 1511 1514 1518 1520 1524 1526 1528 1532 1535 1537 1540 1543 1545 1545 1547
1487 1486 1486 1487 1488 1489 1490 1491 1492 1492 1494 1497 1496 1496 1496 1498 1498 1499 1505 1509 1512 1515 1518 1520 1523 1526 1528 1532 1535 1540 1542 1543 1544
1482 1482 1481 1482 1482 1484 1485 1486 1487 1487 1489 1490 1491 1491 1492 1495 1497 1499 1500 1503 1506 1509 1513 1514 1517 1519 1524 1527 1531 1534 1537 1540 1541